Starlink 33747

operational
NORAD ID: 66208 Int'l Des: 2025-244 Owner: SPXS Country: US Constellation: starlink
LEOCIRCULAR

关于 Starlink 33747

正在加载描述...

实时位置

正在加载3D地球...

即将过境

高度历史

Altitude vs Time

uPlot chart will show altitude changes over time

两行轨道根数

1 66208C 25069M 25301.08173611 -.00008577 00000+0 -28907-3 0 3016
2 66208 53.1599 38.3177 0001256 85.7136 267.4380 15.30202091 13
Epoch: Oct 28, 2025 • Age: 83 hours

当前状态

高度 494.5 km
速度 7.62 km/s
星下点 -52.45°S, 99.55°E
发射日期 Oct 28, 2025
运行时间 3 days
类型 internet

技术详情

分类 Payload
质量 575.00 kg
干质量 530.00 kg
总质量 575.00 kg
长度 0.30 m
直径 4.10 m
跨度 29.00 m
形状 Box + pan
制造商 SPXS
平台类型 Starlink V2MO
阶段状态 In Orbit
所有者/国家 SPXS/US

大型星座

Loading constellations...